This is the latest recevied weather packets stored in our database for station/object KD9IXX-13. If no packets are shown the sender has not sent any weather packets the latest 10 day(s).
| Time | Temp. | Humidity | Pressure | Rain* | Wind** | Luminosity | Snow |
|---|---|---|---|---|---|---|---|
| 1777335002 | 16.67° C | 93% | 1005.1 hPa | 4.06 mm | - | 0 W/m² | - |
| 1777334702 | 16.67° C | 94% | 1004.6 hPa | 2.79 mm | - | 0 W/m² | - |
| 1777334402 | 16.67° C | 95% | 1004.6 hPa | 2.79 mm | - | 2 W/m² | - |
| 1777334102 | 16.67° C | 96% | 1004.8 hPa | 1.02 mm | - | 1 W/m² | - |
| 1777333803 | 16.67° C | 95% | 1005.1 hPa | 0 mm | - | 0 W/m² | - |
| 1777333502 | 17.22° C | 95% | 1004.9 hPa | 0 mm | - | 0 W/m² | - |
| 1777333202 | 17.22° C | 93% | 1004.4 hPa | 0 mm | - | 0 W/m² | - |
| 1777332902 | 17.78° C | 93% | 1005.2 hPa | 0 mm | - | 0 W/m² | - |
| 1777332603 | 17.78° C | 92% | 1005.2 hPa | 0 mm | - | 1 W/m² | - |
| 1777332302 | 18.33° C | 92% | 1004.9 hPa | 0 mm | - | 0 W/m² | - |
| 1777332002 | 18.33° C | 91% | 1004.4 hPa | 0 mm | - | 11 W/m² | - |
| 1777331702 | 18.33° C | 90% | 1004.4 hPa | 0 mm | - | 39 W/m² | - |
| 1777331401 | 18.33° C | 90% | 1004.4 hPa | 0 mm | - | 67 W/m² | - |
| 1777331102 | 18.33° C | 89% | 1004.3 hPa | 0 mm | - | 92 W/m² | - |
| 1777330802 | 18.33° C | 89% | 1004.9 hPa | 0 mm | - | 56 W/m² | - |
| 1777330503 | 18.33° C | 88% | 1004.8 hPa | 0 mm | - | 55 W/m² | - |
| 1777330202 | 18.89° C | 87% | 1005.1 hPa | 0 mm | - | 62 W/m² | - |
| 1777329902 | 18.89° C | 86% | 1005.3 hPa | 0 mm | - | 55 W/m² | - |
| 1777329602 | 18.89° C | 85% | 1005.3 hPa | 0 mm | - | 41 W/m² | - |
| 1777329302 | 18.89° C | 85% | 1005.2 hPa | 0 mm | - | 38 W/m² | - |
| 1777329002 | 18.89° C | 86% | 1005.2 hPa | 0 mm | - | 57 W/m² | - |
| 1777328702 | 18.89° C | 86% | 1004.9 hPa | 0 mm | - | 40 W/m² | - |
| 1777328403 | 18.89° C | 87% | 1005 hPa | 0 mm | - | 54 W/m² | - |
| 1777328102 | 18.89° C | 86% | 1004.9 hPa | 0 mm | - | 63 W/m² | - |
| 1777327802 | 18.89° C | 86% | 1004.9 hPa | 0 mm | - | 115 W/m² | - |
* Rain latest hour (hover to see other rain measurements)
** Current wind speed in m/s (hover to see current wind gust speed)